Regional Weather Roundup
Issued by NWS

Current Version | Previous Version | Text Only | Print | Product List | Glossary Off
Versions: 1 2 3 4 5 6 7 8 9 10 11 12 13 14 15 16 17 18 19 20 21 22 23 24 25 26 27 28 29 30 31 32 33 34 35 36 37 38 39 40 41 42 43 44 45 46 47 48 49 50

000
ASUS43 KLMK 271810
RWRKY
KENTUCKY REGIONAL WEATHER ROUNDUP
NATIONAL WEATHER SERVICE LOUISVILLE KY
200 PM EDT TUE JUN 27 2017

NOTE "FAIR" INDICATES FEW OR NO CLOUDS BELOW 12,000 FEET
WITH NO SIGNIFICANT WEATHER AND/OR OBSTRUCTIONS TO VISIBILITY.

KYZ001>023-026-027-061>063-070>075-271900-
WESTERN AND SOUTH CENTRAL KENTUCKY

CITY           SKY/WX    TMP DP  RH WIND       PRES   REMARKS
PADUCAH        SUNNY     78  55  44 NE8       30.12F
HENDERSON      SUNNY     75  54  47 E6        30.14F
OWENSBORO      MOSUNNY   75  54  47 NE5       30.14F
HOPKINSVILLE   MOSUNNY   77  55  46 N8        30.12F
BOWLING GREEN  MOSUNNY   78  55  44 VRB5      30.14F
GLASGOW        SUNNY     76  52  42 E3        30.14F
$$

KYZ024-025-028>034-038-045-046-053-271900-
NORTH CENTRAL KENTUCKY

CITY           SKY/WX    TMP DP  RH WIND       PRES   REMARKS
LOUISVILLE/SDF MOSUNNY   76  52  43 VRB3      30.13F
LOUISVILLE/LOU MOSUNNY   75  52  44 N6        30.14F
FORT KNOX      SUNNY     74  49  42 CALM      30.13F
$$

KYZ035>037-039>044-047>052-055>060-089>105-271900-
NORTHEAST KENTUCKY

CITY           SKY/WX    TMP DP  RH WIND       PRES   REMARKS
LEXINGTON      MOSUNNY   74  50  42 NW5       30.15F
COVINGTON      PTSUNNY   72  51  47 NW10      30.15S
FRANKFORT      MOSUNNY   74  49  41 VRB6      30.14F
$$

KYZ054-064>069-076>088-106>120-271900-
SOUTHEAST KENTUCKY

CITY           SKY/WX    TMP DP  RH WIND       PRES   REMARKS
JACKSON        SUNNY     72  49  44 NW8       30.14F
LONDON         MOSUNNY   76  49  38 NW8       30.14F
SOMERSET       MOSUNNY   73  52  46 N7        30.15F
MIDDLESBORO    MOSUNNY   76  53  43 NW8       30.15S
MONTICELLO     PTCLDY    74  54  49 N12G18    30.16F
$$




USA.gov is the U.S. government's official web portal to all federal, state and local government web resources and services.